| time (UTC) | temp C | wind direction | speed KPH | gust KPH | rain 1hr cm | rain 24hr cm | rain mn cm | humidity % | barometer mb |
| 20260507045035 | 12 | 234 | 4.8 | 0.0 | 0.00 | 0.00 | 0.03 | 90 | 1015.8 |
| 20260507044537 | 12 | 296 | 3.2 | 0.0 | 0.00 | 0.00 | 0.03 | 91 | 1015.8 |
| 20260507044036 | 12 | 273 | 3.2 | 0.0 | 0.00 | 0.00 | 0.03 | 91 | 1015.6 |
| 20260507043536 | 12 | 217 | 3.2 | 0.0 | 0.00 | 0.00 | 0.03 | 91 | 1015.6 |
| 20260507043036 | 12 | 232 | 4.8 | 0.0 | 0.00 | 0.00 | 0.03 | 91 | 1015.6 |
| 20260507042537 | 12 | 189 | 4.8 | 0.0 | 0.00 | 0.00 | 0.03 | 91 | 1015.6 |
| 20260507042035 | 12 | 169 | 4.8 | 0.0 | 0.00 | 0.00 | 0.03 | 90 | 1015.6 |
| 20260507041536 | 12 | 229 | 4.8 | 0.0 | 0.00 | 0.00 | 0.03 | 89 | 1015.6 |
| 20260507041035 | 13 | 211 | 4.8 | 0.0 | 0.00 | 0.00 | 0.03 | 89 | 1015.6 |
| 20260507040536 | 13 | 194 | 3.2 | 0.0 | 0.00 | 0.00 | 0.03 | 88 | 1015.6 |
| 20260507040036 | 13 | 217 | 3.2 | 0.0 | 0.00 | 0.00 | 0.03 | 88 | 1015.6 |
| 20260507035534 | 13 | 167 | 3.2 | 0.0 | 0.00 | 0.00 | 0.03 | 87 | 1015.5 |
| 20260507035034 | 13 | 157 | 3.2 | 0.0 | 0.00 | 0.00 | 0.03 | 86 | 1015.5 |
| 20260507034537 | 13 | 159 | 4.8 | 0.0 | 0.00 | 0.00 | 0.03 | 84 | 1015.5 |
| 20260507034034 | 13 | 151 | 6.4 | 0.0 | 0.00 | 0.00 | 0.03 | 83 | 1015.3 |
| 20260507033534 | 13 | 276 | 6.4 | 0.0 | 0.00 | 0.00 | 0.03 | 83 | 1015.3 |
| 20260507033034 | 13 | 162 | 6.4 | 0.0 | 0.00 | 0.00 | 0.03 | 83 | 1015.3 |
| 20260507032535 | 13 | 237 | 8.0 | 0.0 | 0.00 | 0.00 | 0.03 | 83 | 1015.0 |
| 20260507032038 | 13 | 298 | 8.0 | 0.0 | 0.00 | 0.00 | 0.03 | 85 | 1015.0 |
| 20260507031534 | 13 | 263 | 6.4 | 0.0 | 0.00 | 0.00 | 0.03 | 86 | 1015.0 |
| 20260507031036 | 13 | 306 | 8.0 | 0.0 | 0.00 | 0.00 | 0.03 | 85 | 1015.1 |
| 20260507030534 | 13 | 269 | 8.0 | 0.0 | 0.00 | 0.00 | 0.03 | 86 | 1015.1 |
| 20260507030032 | 13 | 247 | 9.7 | 0.0 | 0.00 | 0.00 | 0.03 | 86 | 1015.1 |
| 20260507025533 | 13 | 244 | 9.7 | 0.0 | 0.00 | 0.00 | 0.03 | 85 | 1015.0 |
| 20260507025033 | 13 | 286 | 8.0 | 0.0 | 0.00 | 0.00 | 0.03 | 85 | 1015.0 |
| 20260507024533 | 13 | 244 | 8.0 | 0.0 | 0.00 | 0.00 | 0.03 | 83 | 1015.0 |
| 20260507024032 | 13 | 299 | 9.7 | 0.0 | 0.00 | 0.00 | 0.03 | 82 | 1014.8 |
| 20260507023532 | 13 | 259 | 9.7 | 0.0 | 0.00 | 0.00 | 0.03 | 81 | 1014.8 |
| 20260507023034 | 14 | 270 | 9.7 | 0.0 | 0.00 | 0.00 | 0.03 | 80 | 1014.8 |
| 20260507022533 | 14 | 271 | 9.7 | 0.0 | 0.00 | 0.00 | 0.03 | 79 | 1014.7 |
| 20260507022034 | 14 | 229 | 9.7 | 0.0 | 0.00 | 0.00 | 0.03 | 80 | 1014.7 |
| 20260507021534 | 13 | 298 | 9.7 | 0.0 | 0.00 | 0.00 | 0.03 | 82 | 1014.7 |
| 20260507021034 | 14 | 292 | 9.7 | 0.0 | 0.00 | 0.00 | 0.03 | 83 | 1014.7 |
| 20260507020532 | 14 | 309 | 8.0 | 0.0 | 0.00 | 0.00 | 0.03 | 83 | 1014.7 |
| 20260507020040 | 15 | 242 | 6.4 | 0.0 | 0.00 | 0.00 | 0.03 | 82 | 1014.7 |
| 20260507015531 | 15 | 127 | 6.4 | 0.0 | 0.00 | 0.00 | 0.03 | 81 | 1014.7 |
| 20260507015031 | 14 | 217 | 8.0 | 0.0 | 0.00 | 0.00 | 0.03 | 81 | 1014.7 |
| 20260507014532 | 14 | 250 | 9.7 | 0.0 | 0.00 | 0.00 | 0.03 | 80 | 1014.7 |
| 20260507014031 | 14 | 141 | 9.7 | 0.0 | 0.00 | 0.00 | 0.03 | 81 | 1014.6 |
| 20260507013531 | 15 | 286 | 8.0 | 0.0 | 0.00 | 0.00 | 0.03 | 82 | 1014.6 |
| 20260507013046 | 15 | 294 | 8.0 | 0.0 | 0.00 | 0.00 | 0.03 | 81 | 1014.6 |
| 20260507012531 | 15 | 333 | 9.7 | 0.0 | 0.00 | 0.00 | 0.03 | 81 | 1014.6 |
| 20260507012031 | 15 | 281 | 9.7 | 0.0 | 0.00 | 0.00 | 0.03 | 78 | 1014.6 |
| 20260507011533 | 15 | 259 | 9.7 | 0.0 | 0.00 | 0.00 | 0.03 | 77 | 1014.6 |
| 20260507011030 | 15 | 308 | 8.0 | 0.0 | 0.00 | 0.00 | 0.03 | 77 | 1014.6 |
| 20260507010530 | 15 | 290 | 8.0 | 0.0 | 0.00 | 0.00 | 0.03 | 76 | 1014.6 |
| 20260507010035 | 15 | 263 | 8.0 | 0.0 | 0.00 | 0.00 | 0.03 | 77 | 1014.6 |
| 20260507005530 | 15 | 281 | 9.7 | 0.0 | 0.00 | 0.00 | 0.03 | 78 | 1014.6 |
| 20260507005029 | 15 | 315 | 8.0 | 0.0 | 0.00 | 0.00 | 0.03 | 75 | 1014.6 |
| 20260507004529 | 15 | 294 | 8.0 | 0.0 | 0.00 | 0.00 | 0.03 | 79 | 1014.6 |
| 20260507004029 | 15 | 319 | 8.0 | 0.0 | 0.00 | 0.00 | 0.03 | 79 | 1014.6 |
| 20260507003530 | 15 | 261 | 6.4 | 0.0 | 0.00 | 0.00 | 0.03 | 79 | 1014.6 |
| 20260507003040 | 16 | 237 | 4.8 | 0.0 | 0.00 | 0.00 | 0.03 | 81 | 1014.6 |
| 20260507002529 | 16 | 235 | 4.8 | 0.0 | 0.00 | 0.00 | 0.03 | 80 | 1014.5 |
| 20260507002029 | 16 | 228 | 4.8 | 0.0 | 0.00 | 0.00 | 0.03 | 80 | 1014.5 |
| 20260507001530 | 16 | 191 | 4.8 | 0.0 | 0.00 | 0.00 | 0.03 | 80 | 1014.5 |
| 20260507001029 | 16 | 225 | 4.8 | 0.0 | 0.00 | 0.00 | 0.03 | 81 | 1014.5 |
| 20260507000528 | 16 | 212 | 4.8 | 0.0 | 0.00 | 0.00 | 0.03 | 80 | 1014.5 |
| 20260507000034 | 16 | 191 | 4.8 | 0.0 | 0.00 | 0.00 | 0.03 | 80 | 1014.5 |
| 20260506235528 | 16 | 315 | 4.8 | 0.0 | 0.00 | 0.00 | 0.03 | 79 | 1014.5 |
| 20260506235027 | 16 | 242 | 4.8 | 0.0 | 0.00 | 0.00 | 0.03 | 80 | 1014.5 |
| 20260506234528 | 17 | 217 | 4.8 | 0.0 | 0.00 | 0.00 | 0.03 | 79 | 1014.5 |
| 20260506234027 | 17 | 248 | 6.4 | 0.0 | 0.00 | 0.00 | 0.03 | 80 | 1014.5 |
| 20260506233527 | 16 | 175 | 8.0 | 0.0 | 0.00 | 0.00 | 0.03 | 78 | 1014.5 |
| 20260506233028 | 16 | 190 | 6.4 | 0.0 | 0.00 | 0.00 | 0.03 | 76 | 1014.5 |
| 20260506232526 | 17 | 360 | 6.4 | 0.0 | 0.00 | 0.00 | 0.03 | 73 | 1014.7 |
| 20260506232026 | 17 | 214 | 8.0 | 0.0 | 0.00 | 0.00 | 0.03 | 74 | 1014.7 |
| 20260506231526 | 17 | 227 | 6.4 | 0.0 | 0.00 | 0.00 | 0.03 | 75 | 1014.7 |
| 20260506231026 | 17 | 236 | 6.4 | 0.0 | 0.00 | 0.00 | 0.03 | 72 | 1014.9 |
| 20260506230526 | 17 | 360 | 8.0 | 0.0 | 0.00 | 0.00 | 0.03 | 72 | 1014.9 |
| 20260506230025 | 17 | 207 | 8.0 | 0.0 | 0.00 | 0.00 | 0.03 | 73 | 1014.9 |
| 20260506225524 | 17 | 200 | 6.4 | 0.0 | 0.00 | 0.00 | 0.03 | 73 | 1015.0 |
| 20260506225024 | 17 | 360 | 6.4 | 0.0 | 0.00 | 0.00 | 0.03 | 74 | 1015.0 |
| 20260506224525 | 17 | 360 | 6.4 | 0.0 | 0.00 | 0.00 | 0.03 | 74 | 1015.0 |
| 20260506224029 | 17 | 360 | 6.4 | 0.0 | 0.00 | 0.00 | 0.03 | 73 | 1015.2 |
| 20260506223523 | 17 | 360 | 8.0 | 0.0 | 0.00 | 0.00 | 0.03 | 75 | 1015.2 |
| 20260506223024 | 17 | 209 | 9.7 | 0.0 | 0.00 | 0.00 | 0.03 | 72 | 1015.2 |
| 20260506222523 | 17 | 209 | 8.0 | 0.0 | 0.00 | 0.00 | 0.03 | 73 | 1015.4 |
| 20260506222028 | 17 | 360 | 6.4 | 0.0 | 0.00 | 0.00 | 0.03 | 72 | 1015.4 |
| 20260506221523 | 17 | 360 | 8.0 | 0.0 | 0.00 | 0.00 | 0.03 | 71 | 1015.4 |
| 20260506221023 | 17 | 360 | 8.0 | 0.0 | 0.00 | 0.00 | 0.03 | 71 | 1015.5 |
| 20260506220523 | 17 | 215 | 6.4 | 0.0 | 0.00 | 0.00 | 0.03 | 69 | 1015.5 |
| 20260506220025 | 17 | 214 | 6.4 | 0.0 | 0.00 | 0.00 | 0.03 | 70 | 1015.5 |
| 20260506215521 | 17 | 209 | 6.4 | 0.0 | 0.00 | 0.00 | 0.03 | 72 | 1015.7 |
| 20260506215024 | 17 | 202 | 6.4 | 0.0 | 0.00 | 0.00 | 0.03 | 73 | 1015.7 |
| 20260506214535 | 17 | 360 | 6.4 | 0.0 | 0.00 | 0.00 | 0.03 | 73 | 1015.7 |
| 20260506214020 | 17 | 165 | 6.4 | 0.0 | 0.00 | 0.00 | 0.03 | 75 | 1015.7 |
| 20260506213519 | 17 | 360 | 6.4 | 0.0 | 0.00 | 0.00 | 0.03 | 75 | 1015.7 |
| 20260506213021 | 17 | 360 | 6.4 | 0.0 | 0.00 | 0.00 | 0.03 | 76 | 1015.7 |
| 20260506212521 | 17 | 227 | 6.4 | 0.0 | 0.00 | 0.00 | 0.03 | 72 | 1016.0 |
| 20260506212020 | 17 | 210 | 8.0 | 0.0 | 0.00 | 0.00 | 0.03 | 75 | 1016.0 |
| 20260506211520 | 17 | 211 | 8.0 | 0.0 | 0.00 | 0.00 | 0.03 | 75 | 1016.0 |
| 20260506211019 | 17 | 269 | 6.4 | 0.0 | 0.00 | 0.00 | 0.03 | 76 | 1016.1 |
| 20260506210519 | 17 | 234 | 6.4 | 0.0 | 0.00 | 0.00 | 0.03 | 74 | 1016.1 |
| 20260506210021 | 17 | 360 | 6.4 | 0.0 | 0.00 | 0.00 | 0.03 | 71 | 1016.1 |
| 20260506205517 | 17 | 179 | 6.4 | 0.0 | 0.00 | 0.00 | 0.03 | 66 | 1016.1 |
| 20260506205018 | 17 | 230 | 6.4 | 0.0 | 0.00 | 0.00 | 0.03 | 67 | 1016.1 |
| 20260506204518 | 17 | 360 | 4.8 | 0.0 | 0.00 | 0.00 | 0.03 | 68 | 1016.1 |
| 20260506204017 | 17 | 190 | 4.8 | 0.0 | 0.00 | 0.00 | 0.03 | 69 | 1016.0 |
| 20260506203517 | 17 | 205 | 6.4 | 0.0 | 0.00 | 0.00 | 0.03 | 68 | 1016.0 |
| 20260506203020 | 17 | 360 | 4.8 | 0.0 | 0.00 | 0.00 | 0.03 | 69 | 1016.0 |
| 20260506202517 | 17 | 360 | 6.4 | 0.0 | 0.00 | 0.00 | 0.03 | 65 | 1016.3 |
| 20260506202017 | 17 | 242 | 6.4 | 0.0 | 0.00 | 0.00 | 0.03 | 68 | 1016.3 |
| 20260506201517 | 17 | 153 | 6.4 | 0.0 | 0.00 | 0.00 | 0.03 | 67 | 1016.3 |
| 20260506201019 | 17 | 182 | 6.4 | 0.0 | 0.00 | 0.00 | 0.03 | 64 | 1016.5 |
| 20260506200515 | 17 | 360 | 4.8 | 0.0 | 0.00 | 0.00 | 0.03 | 67 | 1016.5 |
| 20260506200014 | 16 | 155 | 4.8 | 0.0 | 0.00 | 0.00 | 0.03 | 69 | 1016.5 |
| 20260506195513 | 16 | 173 | 6.4 | 0.0 | 0.00 | 0.00 | 0.03 | 66 | 1016.6 |
| 20260506195013 | 16 | 169 | 6.4 | 0.0 | 0.00 | 0.00 | 0.03 | 72 | 1016.6 |
| 20260506194513 | 16 | 360 | 8.0 | 0.0 | 0.00 | 0.00 | 0.03 | 71 | 1016.6 |
| 20260506194017 | 16 | 200 | 6.4 | 0.0 | 0.00 | 0.00 | 0.03 | 69 | 1016.5 |
| 20260506193512 | 16 | 171 | 6.4 | 0.0 | 0.00 | 0.00 | 0.03 | 71 | 1016.5 |
| 20260506193014 | 16 | 219 | 6.4 | 0.0 | 0.00 | 0.00 | 0.03 | 74 | 1016.5 |
| 20260506192511 | 16 | 360 | 6.4 | 0.0 | 0.00 | 0.00 | 0.03 | 74 | 1016.8 |
| 20260506192011 | 16 | 148 | 6.4 | 0.0 | 0.00 | 0.00 | 0.03 | 75 | 1016.8 |
| 20260506191511 | 16 | 152 | 6.4 | 0.0 | 0.00 | 0.00 | 0.03 | 74 | 1016.8 |
| 20260506191011 | 16 | 185 | 6.4 | 0.0 | 0.00 | 0.00 | 0.03 | 71 | 1016.9 |
| 20260506190518 | 16 | 155 | 6.4 | 0.0 | 0.00 | 0.00 | 0.03 | 71 | 1016.9 |
| 20260506190013 | 16 | 360 | 6.4 | 0.0 | 0.00 | 0.00 | 0.03 | 73 | 1016.9 |
| 20260506185508 | 16 | 244 | 4.8 | 0.0 | 0.00 | 0.00 | 0.03 | 75 | 1017.0 |
| 20260506185008 | 16 | 360 | 6.4 | 0.0 | 0.00 | 0.00 | 0.03 | 74 | 1017.0 |
| 20260506184510 | 16 | 131 | 4.8 | 0.0 | 0.00 | 0.00 | 0.03 | 75 | 1017.0 |
| 20260506184013 | 16 | 162 | 4.8 | 0.0 | 0.00 | 0.00 | 0.03 | 75 | 1017.1 |
| 20260506183507 | 16 | 360 | 6.4 | 0.0 | 0.00 | 0.00 | 0.03 | 76 | 1017.1 |
| 20260506183013 | 16 | 360 | 4.8 | 0.0 | 0.00 | 0.00 | 0.03 | 77 | 1017.1 |
| 20260506182506 | 16 | 204 | 4.8 | 0.0 | 0.00 | 0.00 | 0.03 | 78 | 1017.1 |
| 20260506182010 | 16 | 172 | 6.4 | 0.0 | 0.00 | 0.00 | 0.03 | 77 | 1017.1 |
| 20260506181512 | 16 | 162 | 6.4 | 0.0 | 0.00 | 0.00 | 0.03 | 78 | 1017.1 |
| 20260506181010 | 16 | 174 | 6.4 | 0.0 | 0.00 | 0.00 | 0.03 | 78 | 1017.2 |
| 20260506180505 | 16 | 172 | 4.8 | 0.0 | 0.00 | 0.00 | 0.03 | 79 | 1017.2 |
| 20260506180005 | 16 | 65 | 4.8 | 0.0 | 0.00 | 0.00 | 0.03 | 80 | 1017.2 |
| 20260506175504 | 16 | 360 | 4.8 | 0.0 | 0.00 | 0.00 | 0.03 | 80 | 1017.1 |
| 20260506175002 | 16 | 190 | 4.8 | 0.0 | 0.00 | 0.00 | 0.03 | 80 | 1017.1 |
| 20260506174502 | 16 | 190 | 4.8 | 0.0 | 0.00 | 0.00 | 0.03 | 80 | 1017.1 |
| 20260506174002 | 15 | 107 | 4.8 | 0.0 | 0.00 | 0.00 | 0.03 | 81 | 1017.1 |
| 20260506173503 | 15 | 169 | 4.8 | 0.0 | 0.00 | 0.00 | 0.03 | 82 | 1017.1 |
| 20260506173002 | 15 | 171 | 4.8 | 0.0 | 0.00 | 0.00 | 0.03 | 82 | 1017.1 |
| 20260506172502 | 15 | 186 | 4.8 | 0.0 | 0.00 | 0.00 | 0.03 | 81 | 1017.1 |
| 20260506172003 | 15 | 144 | 4.8 | 0.0 | 0.00 | 0.00 | 0.03 | 81 | 1017.1 |
| 20260506171605 | 15 | 197 | 4.8 | 0.0 | 0.00 | 0.00 | 0.03 | 81 | 1017.1 |
| 20260506171103 | 15 | 132 | 3.2 | 0.0 | 0.00 | 0.00 | 0.03 | 81 | 1016.9 |
| 20260506170601 | 15 | 163 | 3.2 | 0.0 | 0.00 | 0.00 | 0.03 | 82 | 1016.9 |
| 20260506170058 | 15 | 175 | 4.8 | 0.0 | 0.00 | 0.00 | 0.03 | 82 | 1016.9 |
| 20260506165600 | 15 | 221 | 3.2 | 0.0 | 0.00 | 0.00 | 0.03 | 83 | 1016.9 |
| 20260506165057 | 15 | 212 | 3.2 | 0.0 | 0.00 | 0.00 | 0.03 | 83 | 1016.9 |
| 20260506164607 | 15 | 175 | 3.2 | 0.0 | 0.00 | 0.00 | 0.03 | 84 | 1016.9 |
| 20260506164058 | 15 | 166 | 3.2 | 0.0 | 0.00 | 0.00 | 0.03 | 84 | 1016.8 |
| 20260506163555 | 15 | 189 | 4.8 | 0.0 | 0.00 | 0.00 | 0.03 | 85 | 1016.8 |
| 20260506163055 | 15 | 209 | 3.2 | 0.0 | 0.00 | 0.00 | 0.03 | 85 | 1016.8 |
| 20260506162554 | 15 | 175 | 3.2 | 0.0 | 0.00 | 0.00 | 0.03 | 86 | 1016.8 |
| 20260506162056 | 14 | 209 | 3.2 | 0.0 | 0.00 | 0.00 | 0.03 | 87 | 1016.8 |
| 20260506161551 | 14 | 188 | 4.8 | 0.0 | 0.00 | 0.00 | 0.03 | 87 | 1016.8 |
| 20260506161053 | 14 | 121 | 4.8 | 0.0 | 0.00 | 0.00 | 0.03 | 87 | 1016.9 |
| 20260506160549 | 13 | 203 | 4.8 | 0.0 | 0.00 | 0.00 | 0.03 | 88 | 1016.9 |
| 20260506160053 | 13 | 142 | 4.8 | 0.0 | 0.00 | 0.00 | 0.03 | 89 | 1016.9 |
| 20260506155549 | 13 | 161 | 4.8 | 0.0 | 0.00 | 0.00 | 0.03 | 90 | 1016.8 |
| 20260506155045 | 13 | 184 | 3.2 | 0.0 | 0.00 | 0.00 | 0.03 | 91 | 1016.8 |
| 20260506154543 | 13 | 195 | 3.2 | 0.0 | 0.00 | 0.00 | 0.03 | 92 | 1016.8 |
| 20260506154044 | 13 | 171 | 3.2 | 0.0 | 0.00 | 0.00 | 0.03 | 91 | 1016.9 |
| 20260506153542 | 12 | 207 | 3.2 | 0.0 | 0.00 | 0.00 | 0.03 | 91 | 1016.9 |
| 20260506153104 | 12 | 138 | 3.2 | 0.0 | 0.00 | 0.00 | 0.03 | 91 | 1016.9 |
| 20260506152540 | 12 | 170 | 1.6 | 0.0 | 0.00 | 0.00 | 0.03 | 91 | 1017.0 |
| 20260506152040 | 12 | 190 | 1.6 | 0.0 | 0.00 | 0.00 | 0.03 | 91 | 1017.0 |
| 20260506151543 | 12 | 192 | 1.6 | 0.0 | 0.00 | 0.00 | 0.03 | 92 | 1017.0 |
| 20260506151042 | 12 | 173 | 1.6 | 0.0 | 0.00 | 0.00 | 0.03 | 93 | 1016.9 |
| 20260506150537 | 12 | 173 | 1.6 | 0.0 | 0.00 | 0.00 | 0.03 | 93 | 1016.9 |
| 20260506150042 | 12 | 219 | 1.6 | 0.0 | 0.00 | 0.00 | 0.03 | 94 | 1016.9 |
| 20260506145535 | 11 | 163 | 1.6 | 0.0 | 0.00 | 0.00 | 0.03 | 94 | 1017.0 |
| 20260506145034 | 11 | 135 | 1.6 | 0.0 | 0.00 | 0.00 | 0.03 | 94 | 1017.0 |
| 20260506144533 | 11 | 139 | 1.6 | 0.0 | 0.00 | 0.00 | 0.03 | 94 | 1017.0 |
| 20260506144033 | 11 | 103 | 1.6 | 0.0 | 0.00 | 0.00 | 0.03 | 94 | 1017.0 |
| 20260506143533 | 11 | 175 | 0.0 | 0.0 | 0.00 | 0.00 | 0.03 | 95 | 1017.0 |
| 20260506143033 | 11 | 109 | 0.0 | 0.0 | 0.00 | 0.00 | 0.03 | 95 | 1017.0 |
| 20260506142532 | 11 | 65 | 0.0 | 0.0 | 0.00 | 0.00 | 0.03 | 95 | 1017.0 |
| 20260506142032 | 11 | 65 | 0.0 | 0.0 | 0.00 | 0.00 | 0.03 | 95 | 1017.0 |
| 20260506141531 | 11 | 65 | 0.0 | 0.0 | 0.00 | 0.00 | 0.03 | 95 | 1017.0 |
| 20260506141031 | 11 | 65 | 0.0 | 0.0 | 0.00 | 0.00 | 0.03 | 95 | 1016.9 |
| 20260506140530 | 11 | 355 | 0.0 | 0.0 | 0.00 | 0.00 | 0.03 | 95 | 1016.9 |
| 20260506140030 | 11 | 355 | 0.0 | 0.0 | 0.00 | 0.00 | 0.03 | 95 | 1016.9 |
| 20260506135528 | 11 | 355 | 0.0 | 0.0 | 0.00 | 0.00 | 0.03 | 95 | 1016.7 |
| 20260506135028 | 10 | 355 | 0.0 | 0.0 | 0.00 | 0.00 | 0.03 | 95 | 1016.7 |
| 20260506134531 | 10 | 355 | 0.0 | 0.0 | 0.00 | 0.00 | 0.03 | 95 | 1016.7 |
| 20260506134028 | 10 | 355 | 0.0 | 0.0 | 0.00 | 0.00 | 0.03 | 95 | 1016.7 |
| 20260506133528 | 10 | 355 | 0.0 | 0.0 | 0.00 | 0.00 | 0.03 | 95 | 1016.7 |
| 20260506133028 | 10 | 355 | 0.0 | 0.0 | 0.00 | 0.00 | 0.03 | 95 | 1016.7 |
| 20260506132531 | 10 | 355 | 0.0 | 0.0 | 0.00 | 0.00 | 0.03 | 95 | 1016.5 |
| 20260506132027 | 10 | 355 | 0.0 | 0.0 | 0.00 | 0.00 | 0.03 | 95 | 1016.5 |
| 20260506131534 | 10 | 5 | 0.0 | 0.0 | 0.00 | 0.00 | 0.03 | 95 | 1016.5 |
| 20260506131027 | 10 | 5 | 0.0 | 0.0 | 0.00 | 0.00 | 0.03 | 95 | 1016.3 |
| 20260506130527 | 10 | 5 | 0.0 | 0.0 | 0.00 | 0.00 | 0.03 | 95 | 1016.3 |
| 20260506130027 | 10 | 5 | 0.0 | 0.0 | 0.00 | 0.00 | 0.03 | 95 | 1016.3 |
| 20260506125525 | 10 | 5 | 0.0 | 0.0 | 0.00 | 0.00 | 0.03 | 95 | 1016.0 |
| 20260506125028 | 10 | 5 | 0.0 | 0.0 | 0.00 | 0.00 | 0.00 | 95 | 1016.0 |
| 20260506124525 | 10 | 5 | 0.0 | 0.0 | 0.00 | 0.00 | 0.00 | 95 | 1016.0 |
| 20260506124025 | 10 | 5 | 0.0 | 0.0 | 0.00 | 0.00 | 0.00 | 95 | 1015.9 |
| 20260506123526 | 10 | 5 | 0.0 | 0.0 | 0.00 | 0.00 | 0.00 | 95 | 1015.9 |
| 20260506123024 | 10 | 5 | 0.0 | 0.0 | 0.00 | 0.00 | 0.00 | 95 | 1015.9 |
| 20260506122525 | 10 | 5 | 0.0 | 0.0 | 0.00 | 0.00 | 0.00 | 95 | 1015.8 |
| 20260506122026 | 10 | 5 | 0.0 | 0.0 | 0.00 | 0.00 | 0.00 | 95 | 1015.8 |
| 20260506121524 | 10 | 5 | 0.0 | 0.0 | 0.00 | 0.00 | 0.00 | 94 | 1015.8 |
| 20260506121024 | 10 | 5 | 0.0 | 0.0 | 0.00 | 0.00 | 0.00 | 94 | 1015.9 |
| 20260506120527 | 10 | 5 | 0.0 | 0.0 | 0.00 | 0.00 | 0.00 | 94 | 1015.9 |
| 20260506120024 | 10 | 5 | 0.0 | 0.0 | 0.00 | 0.00 | 0.00 | 95 | 1015.9 |
| 20260506115526 | 10 | 5 | 0.0 | 0.0 | 0.00 | 0.00 | 0.00 | 95 | 1015.8 |
| 20260506115023 | 10 | 5 | 0.0 | 0.0 | 0.00 | 0.00 | 0.00 | 94 | 1015.8 |
| 20260506114528 | 10 | 5 | 0.0 | 0.0 | 0.00 | 0.00 | 0.00 | 94 | 1015.8 |
| 20260506114023 | 10 | 5 | 0.0 | 0.0 | 0.00 | 0.00 | 0.00 | 94 | 1015.8 |
| 20260506113523 | 10 | 5 | 0.0 | 0.0 | 0.00 | 0.00 | 0.00 | 94 | 1015.8 |
| 20260506113035 | 10 | 5 | 0.0 | 0.0 | 0.00 | 0.00 | 0.00 | 94 | 1015.8 |
| 20260506112522 | 10 | 5 | 0.0 | 0.0 | 0.00 | 0.00 | 0.00 | 94 | 1015.8 |
| 20260506112022 | 10 | 5 | 0.0 | 0.0 | 0.00 | 0.00 | 0.00 | 94 | 1015.8 |
| 20260506111522 | 10 | 5 | 0.0 | 0.0 | 0.00 | 0.00 | 0.00 | 94 | 1015.8 |
| 20260506111023 | 10 | 5 | 0.0 | 0.0 | 0.00 | 0.00 | 0.00 | 95 | 1015.7 |
| 20260506110523 | 10 | 5 | 0.0 | 0.0 | 0.00 | 0.00 | 0.00 | 94 | 1015.7 |
| 20260506110022 | 10 | 5 | 0.0 | 0.0 | 0.00 | 0.00 | 0.00 | 94 | 1015.7 |
| 20260506105521 | 10 | 5 | 0.0 | 0.0 | 0.00 | 0.00 | 0.00 | 94 | 1015.7 |
| 20260506105022 | 10 | 5 | 0.0 | 0.0 | 0.00 | 0.00 | 0.00 | 94 | 1015.7 |
| 20260506104524 | 10 | 5 | 0.0 | 0.0 | 0.00 | 0.00 | 0.00 | 94 | 1015.7 |
| 20260506104020 | 10 | 5 | 0.0 | 0.0 | 0.00 | 0.00 | 0.00 | 94 | 1015.7 |
| 20260506103521 | 10 | 5 | 0.0 | 0.0 | 0.00 | 0.00 | 0.00 | 94 | 1015.7 |
| 20260506103025 | 10 | 5 | 0.0 | 0.0 | 0.00 | 0.00 | 0.00 | 94 | 1015.7 |
| 20260506102520 | 10 | 5 | 0.0 | 0.0 | 0.00 | 0.00 | 0.00 | 94 | 1015.7 |
| 20260506102020 | 10 | 5 | 0.0 | 0.0 | 0.00 | 0.00 | 0.00 | 94 | 1015.7 |
| 20260506101520 | 10 | 5 | 0.0 | 0.0 | 0.00 | 0.00 | 0.00 | 94 | 1015.7 |
| 20260506101019 | 10 | 5 | 0.0 | 0.0 | 0.00 | 0.00 | 0.00 | 94 | 1015.6 |
| 20260506100519 | 10 | 5 | 0.0 | 0.0 | 0.00 | 0.00 | 0.00 | 94 | 1015.6 |
| 20260506100019 | 10 | 5 | 0.0 | 0.0 | 0.00 | 0.00 | 0.00 | 94 | 1015.6 |
| 20260506095518 | 10 | 5 | 0.0 | 0.0 | 0.00 | 0.00 | 0.00 | 94 | 1015.7 |
| 20260506095018 | 10 | 5 | 0.0 | 0.0 | 0.00 | 0.00 | 0.00 | 94 | 1015.7 |
| 20260506094517 | 9 | 5 | 0.0 | 0.0 | 0.00 | 0.00 | 0.00 | 94 | 1015.7 |
| 20260506094016 | 10 | 5 | 0.0 | 0.0 | 0.00 | 0.00 | 0.00 | 94 | 1015.7 |
| 20260506093516 | 10 | 5 | 0.0 | 0.0 | 0.00 | 0.00 | 0.00 | 94 | 1015.7 |
| 20260506093015 | 10 | 257 | 0.0 | 0.0 | 0.00 | 0.00 | 0.00 | 94 | 1015.7 |
| 20260506092515 | 10 | 257 | 0.0 | 0.0 | 0.00 | 0.00 | 0.00 | 94 | 1015.7 |
| 20260506092014 | 10 | 257 | 0.0 | 0.0 | 0.00 | 0.00 | 0.00 | 94 | 1015.7 |
| 20260506091513 | 10 | 257 | 0.0 | 0.0 | 0.00 | 0.00 | 0.00 | 94 | 1015.7 |
| 20260506091013 | 10 | 257 | 0.0 | 0.0 | 0.00 | 0.00 | 0.00 | 94 | 1015.8 |
| 20260506090511 | 10 | 257 | 0.0 | 0.0 | 0.00 | 0.00 | 0.00 | 94 | 1015.8 |
| 20260506090015 | 11 | 257 | 0.0 | 0.0 | 0.00 | 0.00 | 0.00 | 94 | 1015.8 |
| 20260506085509 | 11 | 257 | 0.0 | 0.0 | 0.00 | 0.00 | 0.00 | 94 | 1016.0 |
| 20260506085011 | 11 | 257 | 0.0 | 0.0 | 0.00 | 0.00 | 0.00 | 94 | 1016.0 |
| 20260506084509 | 11 | 257 | 0.0 | 0.0 | 0.00 | 0.00 | 0.00 | 94 | 1016.0 |
| 20260506084012 | 11 | 165 | 0.0 | 0.0 | 0.00 | 0.00 | 0.00 | 94 | 1016.0 |
| 20260506083509 | 11 | 165 | 0.0 | 0.0 | 0.00 | 0.00 | 0.00 | 94 | 1016.0 |
| 20260506083008 | 11 | 165 | 0.0 | 0.0 | 0.00 | 0.00 | 0.00 | 94 | 1016.0 |
| 20260506082508 | 11 | 186 | 0.0 | 0.0 | 0.00 | 0.00 | 0.00 | 94 | 1016.1 |
| 20260506082010 | 11 | 186 | 1.6 | 0.0 | 0.00 | 0.00 | 0.00 | 94 | 1016.1 |
| 20260506081509 | 11 | 184 | 1.6 | 0.0 | 0.00 | 0.00 | 0.00 | 94 | 1016.1 |
| 20260506081013 | 11 | 167 | 1.6 | 0.0 | 0.00 | 0.00 | 0.00 | 94 | 1016.2 |
| 20260506080508 | 11 | 184 | 1.6 | 0.0 | 0.00 | 0.00 | 0.00 | 94 | 1016.2 |
| 20260506073505 | 11 | 172 | 0.0 | 0.0 | 0.00 | 0.00 | 0.00 | 94 | 1016.2 |
| 20260506073005 | 11 | 172 | 1.6 | 0.0 | 0.00 | 0.00 | 0.00 | 94 | 1016.2 |
| 20260506072505 | 11 | 172 | 1.6 | 0.0 | 0.00 | 0.00 | 0.00 | 94 | 1016.1 |
| 20260506072005 | 11 | 172 | 1.6 | 0.0 | 0.00 | 0.00 | 0.00 | 94 | 1016.1 |
| 20260506071505 | 11 | 170 | 1.6 | 0.0 | 0.00 | 0.00 | 0.00 | 94 | 1016.1 |
| 20260506071006 | 11 | 174 | 1.6 | 0.0 | 0.00 | 0.00 | 0.00 | 94 | 1016.0 |
| 20260506070503 | 11 | 182 | 1.6 | 0.0 | 0.00 | 0.00 | 0.00 | 94 | 1016.0 |
| 20260506062502 | 11 | 171 | 3.2 | 0.0 | 0.00 | 0.00 | 0.00 | 94 | 1015.7 |
| 20260506062002 | 11 | 360 | 1.6 | 0.0 | 0.00 | 0.00 | 0.00 | 94 | 1015.7 |
| 20260506061501 | 11 | 167 | 1.6 | 0.0 | 0.00 | 0.00 | 0.00 | 93 | 1015.7 |
| 20260506061003 | 11 | 166 | 3.2 | 0.0 | 0.00 | 0.00 | 0.00 | 93 | 1015.7 |
| 20260506060501 | 11 | 169 | 3.2 | 0.0 | 0.00 | 0.00 | 0.00 | 93 | 1015.7 |
| 20260506051058 | 11 | 166 | 3.2 | 0.0 | 0.00 | 0.00 | 0.00 | 93 | 1015.2 |
| 20260506050558 | 11 | 167 | 3.2 | 0.0 | 0.00 | 0.00 | 0.00 | 93 | 1015.2 |
| 20260506050106 | 11 | 161 | 3.2 | 0.0 | 0.00 | 0.00 | 0.00 | 93 | 1015.2 |